Location: ?????
(37.7324°N, 23.9257°E)
Time: 06:15:12
(UTC+00:00)

RESURS DK-1 - Pass Details

Date: 29 November 2020
Orbit: 556 x 561 km, 69.9° (Epoch: 17 January)

Event Time Altitude Azimuth Distance (km) Brightness Sun altitude
Exits shadow 02:51:04 20° 156° (SSE) 1,321 4.5 -28.8°
Maximum altitude 02:53:10 32° 107° (ESE) 975 4.1 -28.3°
Drops below altitude 10° 02:56:51 10° 44° (NE) 1,854 5.4 -27.6°
Sets 02:59:13 0° 34° (NE) 2,754 6.2 -27.2°
